CSN3989 ZGGG-ZSJX

Flight info

Callsign CSN3989
Flight time N/A
Altitude 29100
Route BOVMA W41 DOPKU G471 PLT A599 KAKIS KAKS6W/12
Aircraft A320/M-SDE3FGHIRWY/LB1

Departure

Time N/A
Airport Guangzhou Baiyun International Airport (ZGGG)

Arrival

Time 2026-05-06 14:13
Airport Jiaxing Nanhu Airport (ZSJX)
Time Latitude Longitude Altitude Speed Heading
2026-05-06 13:50 29.54895 119.41278 22363 ft 435 kts 27°
2026-05-06 13:50 29.57465 119.42995 21903 ft 432 kts 27°
2026-05-06 13:51 29.59919 119.44967 21449 ft 431 kts 41°
2026-05-06 13:51 29.61971 119.47464 20984 ft 429 kts 46°
2026-05-06 13:51 29.63961 119.50006 20522 ft 426 kts 46°
2026-05-06 13:51 29.65932 119.52537 20081 ft 423 kts 47°
2026-05-06 13:52 29.67877 119.55049 19647 ft 420 kts 47°
2026-05-06 13:52 29.69808 119.57552 19217 ft 416 kts 47°
2026-05-06 13:52 29.71722 119.60033 18786 ft 413 kts 47°
2026-05-06 13:52 29.73627 119.62501 18373 ft 410 kts 47°
2026-05-06 13:53 29.75578 119.64871 17908 ft 407 kts 41°
2026-05-06 13:53 29.77771 119.66886 17527 ft 403 kts 32°
2026-05-06 13:53 29.80163 119.68556 17142 ft 400 kts 28°
2026-05-06 13:53 29.82560 119.70152 16775 ft 398 kts 28°
2026-05-06 13:54 29.84947 119.71755 16400 ft 396 kts 29°
2026-05-06 13:54 29.87312 119.73350 16044 ft 393 kts 29°
2026-05-06 13:54 29.89667 119.74938 15680 ft 391 kts 29°
2026-05-06 13:54 29.92010 119.76517 15318 ft 388 kts 29°
2026-05-06 13:55 29.94339 119.78085 14969 ft 385 kts 29°
2026-05-06 13:55 29.96638 119.79636 14628 ft 383 kts 29°
2026-05-06 13:55 29.98933 119.81183 14282 ft 381 kts 30°
2026-05-06 13:55 30.01210 119.82719 14046 ft 379 kts 30°
2026-05-06 13:56 30.03489 119.84256 13817 ft 378 kts 30°
2026-05-06 13:56 30.05750 119.85784 13570 ft 376 kts 30°
2026-05-06 13:56 30.08001 119.87305 13315 ft 374 kts 30°
2026-05-06 13:56 30.10213 119.88800 13059 ft 372 kts 30°
2026-05-06 13:57 30.12445 119.90308 12807 ft 370 kts 29°
2026-05-06 13:57 30.14681 119.91821 12556 ft 368 kts 29°
2026-05-06 13:57 30.16871 119.93300 12315 ft 367 kts 29°
2026-05-06 13:57 30.19057 119.94776 12068 ft 365 kts 29°
2026-05-06 13:58 30.21248 119.96258 11839 ft 363 kts 29°
2026-05-06 13:58 30.23426 119.97735 11792 ft 360 kts 29°
2026-05-06 13:58 30.25530 119.99165 11799 ft 343 kts 29°
2026-05-06 13:58 30.27540 120.00532 11808 ft 327 kts 29°
2026-05-06 13:59 30.29470 120.01843 11604 ft 320 kts 29°
2026-05-06 13:59 30.31377 120.03136 11349 ft 315 kts 29°
2026-05-06 13:59 30.33239 120.04395 11119 ft 309 kts 28°
2026-05-06 13:59 30.35090 120.05650 10878 ft 303 kts 28°
2026-05-06 14:00 30.36886 120.06871 10647 ft 297 kts 28°
2026-05-06 14:00 30.38654 120.08076 10413 ft 292 kts 28°
2026-05-06 14:00 30.40388 120.09258 10182 ft 287 kts 28°
2026-05-06 14:00 30.42090 120.10418 9948 ft 281 kts 28°
2026-05-06 14:01 30.43768 120.11560 9702 ft 278 kts 28°
2026-05-06 14:01 30.45438 120.12698 9450 ft 277 kts 28°
2026-05-06 14:01 30.47096 120.13828 9204 ft 276 kts 28°
2026-05-06 14:01 30.48746 120.14951 8954 ft 275 kts 28°
2026-05-06 14:02 30.50400 120.16070 8703 ft 275 kts 28°
2026-05-06 14:02 30.52049 120.17184 8461 ft 274 kts 28°
2026-05-06 14:02 30.53695 120.18296 8188 ft 273 kts 28°
2026-05-06 14:02 30.55332 120.19401 7918 ft 272 kts 28°
2026-05-06 14:03 30.56965 120.20504 7653 ft 271 kts 28°
2026-05-06 14:03 30.58588 120.21604 7390 ft 270 kts 28°
2026-05-06 14:03 30.60207 120.22700 7136 ft 269 kts 28°
2026-05-06 14:03 30.61821 120.23791 6873 ft 268 kts 28°
2026-05-06 14:04 30.63409 120.24866 6620 ft 265 kts 28°
2026-05-06 14:04 30.64980 120.25930 6367 ft 261 kts 28°
2026-05-06 14:04 30.66560 120.27004 6085 ft 256 kts 28°
2026-05-06 14:04 30.68088 120.28043 5807 ft 252 kts 28°
2026-05-06 14:05 30.69588 120.29058 5538 ft 248 kts 28°
2026-05-06 14:05 30.71054 120.30051 5246 ft 246 kts 29°
2026-05-06 14:05 30.72546 120.31064 4944 ft 244 kts 29°
2026-05-06 14:05 30.73981 120.32039 4716 ft 241 kts 30°
2026-05-06 14:06 30.75436 120.33028 4469 ft 236 kts 30°
2026-05-06 14:06 30.76819 120.33967 4269 ft 231 kts 30°
2026-05-06 14:06 30.78019 120.35143 4073 ft 224 kts 55°
2026-05-06 14:06 30.78653 120.36741 3879 ft 215 kts 82°
2026-05-06 14:07 30.78659 120.38444 3735 ft 210 kts 106°
2026-05-06 14:07 30.78189 120.40030 3540 ft 207 kts 114°
2026-05-06 14:07 30.77685 120.41599 3346 ft 206 kts 113°
2026-05-06 14:07 30.77188 120.43160 3152 ft 205 kts 114°
2026-05-06 14:08 30.76696 120.44702 2992 ft 201 kts 114°
2026-05-06 14:08 30.76223 120.46192 2789 ft 193 kts 114°
2026-05-06 14:08 30.75770 120.47621 2652 ft 182 kts 114°
2026-05-06 14:08 30.75347 120.48957 2519 ft 171 kts 114°
2026-05-06 14:09 30.74949 120.50216 2390 ft 159 kts 114°
2026-05-06 14:09 30.74577 120.51391 2263 ft 152 kts 114°
2026-05-06 14:09 30.74216 120.52527 2147 ft 147 kts 114°
2026-05-06 14:09 30.73867 120.53619 2100 ft 142 kts 114°
2026-05-06 14:10 30.73520 120.54702 1929 ft 142 kts 114°
2026-05-06 14:10 30.73185 120.55756 1701 ft 137 kts 112°
2026-05-06 14:10 30.72858 120.56792 1474 ft 136 kts 113°
2026-05-06 14:10 30.72518 120.57815 1270 ft 135 kts 114°
2026-05-06 14:11 30.72175 120.58828 1064 ft 135 kts 111°
2026-05-06 14:11 30.71869 120.59848 903 ft 133 kts 110°
2026-05-06 14:11 30.71560 120.60862 753 ft 133 kts 111°
2026-05-06 14:11 30.71225 120.61859 570 ft 132 kts 112°
2026-05-06 14:12 30.70883 120.62843 388 ft 135 kts 111°
2026-05-06 14:12 30.70585 120.63864 220 ft 133 kts 110°
2026-05-06 14:12 30.70259 120.64867 30 ft 132 kts 111°
2026-05-06 14:12 30.69994 120.65708 24 ft 86 kts 110°
2026-05-06 14:13 30.69846 120.66171 22 ft 43 kts 110°
2026-05-06 14:13 30.69770 120.66407 22 ft 29 kts 110°
2026-05-06 14:13 30.69752 120.66592 24 ft 16 kts 87°
2026-05-06 14:13 30.69766 120.66717 24 ft 11 kts 64°
2026-05-06 14:14 30.69837 120.66718 23 ft 13 kts 301°
2026-05-06 14:14 30.69860 120.66636 23 ft 9 kts 288°
2026-05-06 14:14 30.69882 120.66568 23 ft 9 kts 290°
2026-05-06 14:14 30.69902 120.66506 23 ft 8 kts 291°
2026-05-06 14:15 30.69921 120.66450 23 ft 7 kts 290°
2026-05-06 14:15 30.69937 120.66398 23 ft 10 kts 290°
2026-05-06 14:15 30.69980 120.66263 23 ft 22 kts 290°
2026-05-06 14:15 30.70038 120.66081 22 ft 26 kts 290°
2026-05-06 14:16 30.70103 120.65874 23 ft 29 kts 289°
2026-05-06 14:16 30.70168 120.65672 23 ft 25 kts 290°
2026-05-06 14:16 30.70215 120.65524 25 ft 17 kts 291°
2026-05-06 14:16 30.70253 120.65433 23 ft 4 kts 346°
2026-05-06 14:17 30.70281 120.65448 23 ft 5 kts 24°
2026-05-06 14:17 30.70314 120.65463 25 ft 7 kts 21°
2026-05-06 14:17 30.70375 120.65488 25 ft 11 kts 19°
2026-05-06 14:17 30.70453 120.65514 23 ft 10 kts 350°
2026-05-06 14:18 30.70488 120.65449 23 ft 9 kts 289°
2026-05-06 14:18 30.70506 120.65390 23 ft 6 kts 290°
2026-05-06 14:18 30.70529 120.65375 23 ft 4 kts
2026-05-06 14:18 30.70551 120.65382 23 ft 4 kts 18°
2026-05-06 14:19 30.70574 120.65391 23 ft 0 kts 19°